TGW759 VOTR-WSSS

Flight info

Callsign TGW759
Flight time N/A
Altitude 37000
Route DCT TTR T3 ADKIT N563 SALAX Y340 BATAR A464 ARAMA DCT TEBUN TEBUN1A
Aircraft A20N/M-SDE2E3FGHIRWXY/LB1

Departure

Time 2026-04-25 08:47
Airport Tiruchirappalli International Airport (VOTR)

Arrival

Time N/A
Airport Singapore Changi Airport (WSSS)
Time Latitude Longitude Altitude Speed Heading
2026-04-25 08:35 10.76134 78.70909 295 ft 0 kts 239°
2026-04-25 08:40 10.76139 78.70919 294 ft 3 kts 239°
2026-04-25 08:40 10.76150 78.70937 292 ft 3 kts 239°
2026-04-25 08:41 10.76160 78.70953 292 ft 3 kts 248°
2026-04-25 08:41 10.76164 78.70972 292 ft 3 kts 276°
2026-04-25 08:41 10.76159 78.70990 292 ft 3 kts 321°
2026-04-25 08:41 10.76151 78.70995 292 ft 1 kts 329°
2026-04-25 08:42 10.76150 78.70996 292 ft 0 kts 329°
2026-04-25 08:44 10.76153 78.70994 292 ft 2 kts 329°
2026-04-25 08:44 10.76194 78.70970 296 ft 12 kts 329°
2026-04-25 08:45 10.76282 78.70918 295 ft 16 kts 329°
2026-04-25 08:45 10.76390 78.70861 294 ft 18 kts 352°
2026-04-25 08:45 10.76509 78.70886 297 ft 16 kts 15°
2026-04-25 08:45 10.76559 78.70944 296 ft 6 kts 86°
2026-04-25 08:46 10.76564 78.71034 292 ft 42 kts 85°
2026-04-25 08:46 10.76607 78.71584 295 ft 111 kts 85°
2026-04-25 08:46 10.76682 78.72554 298 ft 163 kts 85°
2026-04-25 08:46 10.76769 78.73729 862 ft 163 kts 86°
2026-04-25 08:47 10.76808 78.74851 1680 ft 158 kts 90°
2026-04-25 08:47 10.76758 78.76011 2113 ft 171 kts 94°
2026-04-25 08:47 10.76683 78.77278 2467 ft 189 kts 93°
2026-04-25 08:47 10.76629 78.78682 2767 ft 210 kts 93°
2026-04-25 08:48 10.76581 78.80237 3028 ft 234 kts 93°
2026-04-25 08:48 10.76529 78.81964 3373 ft 255 kts 93°
2026-04-25 08:48 10.76471 78.83822 3950 ft 266 kts 92°
2026-04-25 08:48 10.76411 78.85713 4766 ft 269 kts 92°
2026-04-25 08:49 10.76354 78.87626 5531 ft 272 kts 92°
2026-04-25 08:49 10.76294 78.89559 6301 ft 275 kts 92°
2026-04-25 08:49 10.76227 78.91513 7026 ft 278 kts 92°
2026-04-25 08:49 10.76154 78.93483 7768 ft 279 kts 92°
2026-04-25 08:50 10.76091 78.95436 8521 ft 280 kts 91°
2026-04-25 08:50 10.76028 78.97426 9234 ft 283 kts 91°
2026-04-25 08:50 10.75962 78.99431 9922 ft 284 kts 91°
2026-04-25 08:50 10.75897 79.01487 10304 ft 300 kts 91°
2026-04-25 08:51 10.75827 79.03675 10500 ft 319 kts 91°
2026-04-25 08:51 10.75751 79.05987 10805 ft 333 kts 91°
2026-04-25 08:51 10.75671 79.08348 11460 ft 335 kts 90°
2026-04-25 08:51 10.75590 79.10720 12181 ft 336 kts 90°
2026-04-25 08:52 10.75509 79.13100 12815 ft 339 kts 90°
2026-04-25 08:52 10.75429 79.15481 13370 ft 344 kts 90°
2026-04-25 08:52 10.75347 79.17925 13950 ft 348 kts 91°
2026-04-25 08:52 10.75264 79.20395 14507 ft 351 kts 91°
2026-04-25 08:53 10.75180 79.22891 15055 ft 356 kts 91°
2026-04-25 08:53 10.75094 79.25420 15589 ft 359 kts 91°
2026-04-25 08:53 10.75006 79.27973 16113 ft 364 kts 92°
2026-04-25 08:53 10.74919 79.30552 16602 ft 367 kts 92°
2026-04-25 08:54 10.74830 79.33159 17129 ft 370 kts 92°
2026-04-25 08:54 10.74742 79.35753 17553 ft 375 kts 92°
2026-04-25 08:54 10.74651 79.38412 18010 ft 378 kts 92°
2026-04-25 08:54 10.74559 79.41086 18521 ft 380 kts 93°
2026-04-25 08:55 10.74466 79.43783 18987 ft 383 kts 93°
2026-04-25 08:55 10.74371 79.46498 19431 ft 386 kts 93°
2026-04-25 08:55 10.74275 79.49234 19877 ft 388 kts 93°
2026-04-25 08:55 10.74182 79.51985 20316 ft 391 kts 92°
2026-04-25 08:56 10.74085 79.54756 20735 ft 394 kts 92°
2026-04-25 08:56 10.73988 79.57512 21121 ft 397 kts 92°
2026-04-25 08:56 10.73888 79.60327 21519 ft 400 kts 92°
2026-04-25 08:56 10.73788 79.63161 21922 ft 402 kts 92°
2026-04-25 08:57 10.73687 79.66013 22307 ft 405 kts 92°
2026-04-25 08:57 10.73587 79.68883 22688 ft 407 kts 92°
2026-04-25 08:57 10.73492 79.71767 23054 ft 410 kts 92°
2026-04-25 08:57 10.73415 79.74671 23413 ft 412 kts 92°
2026-04-25 08:58 10.73344 79.77594 23767 ft 414 kts 92°
2026-04-25 08:58 10.73273 79.80491 24115 ft 417 kts 92°
2026-04-25 08:58 10.73197 79.83447 24449 ft 419 kts 92°
2026-04-25 08:58 10.73120 79.86416 24769 ft 422 kts 92°
2026-04-25 08:59 10.73041 79.89410 25030 ft 425 kts 92°
2026-04-25 08:59 10.72960 79.92423 25325 ft 428 kts 92°
2026-04-25 08:59 10.72880 79.95451 25631 ft 430 kts 92°
2026-04-25 08:59 10.72798 79.98496 25911 ft 432 kts 92°
2026-04-25 09:00 10.72716 80.01556 26223 ft 434 kts 93°
2026-04-25 09:00 10.72633 80.04630 26486 ft 436 kts 93°
2026-04-25 09:00 10.72550 80.07681 26731 ft 439 kts 93°
2026-04-25 09:00 10.72465 80.10789 26980 ft 441 kts 93°
2026-04-25 09:01 10.72374 80.13909 27244 ft 443 kts 93°
2026-04-25 09:01 10.72280 80.17047 27476 ft 445 kts 93°
2026-04-25 09:01 10.72187 80.20198 27705 ft 447 kts 93°
2026-04-25 09:01 10.72094 80.23368 27959 ft 449 kts 94°
2026-04-25 09:02 10.72001 80.26551 28175 ft 452 kts 94°
2026-04-25 09:02 10.71905 80.29762 28295 ft 456 kts 94°
2026-04-25 09:02 10.71810 80.32989 28553 ft 457 kts 94°
2026-04-25 09:02 10.71714 80.36185 28773 ft 459 kts 94°
2026-04-25 09:03 10.71617 80.39439 28994 ft 461 kts 94°
2026-04-25 09:03 10.71519 80.42705 29201 ft 463 kts 94°
2026-04-25 09:03 10.71420 80.45985 29412 ft 465 kts 94°
2026-04-25 09:03 10.71321 80.49280 29618 ft 467 kts 94°
2026-04-25 09:04 10.71221 80.52587 29819 ft 469 kts 94°
2026-04-25 09:04 10.71120 80.55906 30043 ft 471 kts 94°
2026-04-25 09:04 10.71019 80.59238 30252 ft 472 kts 94°
2026-04-25 09:04 10.70917 80.62580 30471 ft 474 kts 94°
2026-04-25 09:05 10.70816 80.65886 30704 ft 475 kts 94°
2026-04-25 09:05 10.70712 80.69245 30934 ft 476 kts 94°
2026-04-25 09:05 10.70608 80.72612 31206 ft 476 kts 94°
2026-04-25 09:05 10.70503 80.75973 31518 ft 475 kts 94°
2026-04-25 09:06 10.70399 80.79327 31798 ft 475 kts 94°
2026-04-25 09:06 10.70292 80.82679 32087 ft 474 kts 94°
2026-04-25 09:06 10.70186 80.86023 32352 ft 473 kts 94°
2026-04-25 09:06 10.70081 80.89368 32612 ft 472 kts 94°
2026-04-25 09:07 10.69977 80.92656 32860 ft 472 kts 94°
2026-04-25 09:07 10.69872 80.95989 33102 ft 471 kts 94°
2026-04-25 09:07 10.69766 80.99320 33336 ft 471 kts 94°
2026-04-25 09:07 10.69660 81.02640 33575 ft 470 kts 94°
2026-04-25 09:08 10.69554 81.05955 33790 ft 469 kts 94°
2026-04-25 09:08 10.69447 81.09270 33988 ft 469 kts 94°
2026-04-25 09:08 10.69340 81.12582 34189 ft 468 kts 94°
2026-04-25 09:08 10.69233 81.15890 34380 ft 468 kts 94°
2026-04-25 09:09 10.69126 81.19197 34548 ft 468 kts 94°
2026-04-25 09:09 10.69018 81.22505 34710 ft 468 kts 94°
2026-04-25 09:09 10.68912 81.25766 34890 ft 468 kts 94°
2026-04-25 09:09 10.68804 81.29070 35050 ft 468 kts 94°
2026-04-25 09:10 10.68695 81.32376 35196 ft 468 kts 94°
2026-04-25 09:10 10.68585 81.35680 35360 ft 468 kts 94°
2026-04-25 09:10 10.68474 81.38988 35519 ft 468 kts 94°
2026-04-25 09:10 10.68365 81.42287 35675 ft 467 kts 94°
2026-04-25 09:11 10.68145 81.48894 35984 ft 467 kts 94°
2026-04-25 09:11 10.68036 81.52194 36128 ft 467 kts 94°
2026-04-25 09:11 10.67927 81.55446 36248 ft 467 kts 94°
2026-04-25 09:12 10.67816 81.58748 36380 ft 467 kts 94°
2026-04-25 09:12 10.67704 81.62047 36508 ft 467 kts 94°
2026-04-25 09:12 10.67591 81.65352 36644 ft 467 kts 94°
2026-04-25 09:12 10.67480 81.68637 36840 ft 463 kts 94°
2026-04-25 09:13 10.67260 81.75108 36850 ft 456 kts 94°
2026-04-25 09:13 10.67036 81.81567 36851 ft 458 kts 94°
2026-04-25 09:14 10.66814 81.87992 36851 ft 458 kts 94°
2026-04-25 09:14 10.66589 81.94456 36851 ft 457 kts 94°
2026-04-25 09:15 10.66362 82.00918 36850 ft 458 kts 94°
2026-04-25 09:15 10.66134 82.07384 36858 ft 458 kts 94°
2026-04-25 09:16 10.65908 82.13800 36853 ft 458 kts 94°
2026-04-25 09:16 10.65679 82.20264 36848 ft 457 kts 94°
2026-04-25 09:17 10.65331 82.29956 36845 ft 457 kts 94°
2026-04-25 09:18 10.65098 82.36409 36842 ft 457 kts 94°
2026-04-25 09:18 10.64865 82.42821 36844 ft 457 kts 94°
2026-04-25 09:19 10.64629 82.49272 36846 ft 457 kts 94°
2026-04-25 09:19 10.64392 82.55722 36840 ft 457 kts 94°
2026-04-25 09:20 10.64154 82.62172 36837 ft 456 kts 94°
2026-04-25 09:20 10.63915 82.68573 36836 ft 456 kts 94°
2026-04-25 09:21 10.63675 82.75006 36835 ft 456 kts 94°
2026-04-25 09:21 10.63369 82.81436 36830 ft 454 kts 98°
2026-04-25 09:22 10.62079 82.87690 36829 ft 451 kts 110°
2026-04-25 09:22 10.59679 82.93554 36830 ft 450 kts 117°
2026-04-25 09:23 10.57083 82.99290 36836 ft 450 kts 116°
2026-04-25 09:23 10.54474 83.05078 36841 ft 450 kts 116°
2026-04-25 09:24 10.51857 83.10865 36844 ft 451 kts 116°
2026-04-25 09:24 10.49236 83.16654 36847 ft 451 kts 116°
2026-04-25 09:25 10.46630 83.22407 36846 ft 451 kts 116°
2026-04-25 09:25 10.44008 83.28198 36849 ft 451 kts 116°
2026-04-25 09:26 10.41382 83.33987 36851 ft 451 kts 116°
2026-04-25 09:26 10.38754 83.39778 36845 ft 450 kts 116°
2026-04-25 09:27 10.36155 83.45503 36840 ft 449 kts 116°
2026-04-25 09:27 10.33538 83.51268 36842 ft 450 kts 116°
2026-04-25 09:28 10.30916 83.57033 36841 ft 449 kts 116°
2026-04-25 09:28 10.28296 83.62793 36845 ft 449 kts 116°
2026-04-25 09:29 10.25696 83.68507 36837 ft 449 kts 116°
2026-04-25 09:29 10.23079 83.74254 36832 ft 448 kts 116°
2026-04-25 09:30 10.20464 83.79993 36833 ft 448 kts 116°
2026-04-25 09:30 10.17854 83.85722 36826 ft 447 kts 116°
2026-04-25 09:31 10.15260 83.91410 36827 ft 447 kts 116°
2026-04-25 09:31 10.12651 83.97131 36827 ft 447 kts 116°
2026-04-25 09:32 10.10040 84.02850 36826 ft 447 kts 116°
2026-04-25 09:32 10.07425 84.08574 36833 ft 447 kts 116°
2026-04-25 09:33 10.04807 84.14302 36833 ft 448 kts 116°
2026-04-25 09:33 10.02203 84.19999 36840 ft 448 kts 116°
2026-04-25 09:34 9.99577 84.25739 36842 ft 449 kts 116°
2026-04-25 09:34 9.96948 84.31482 36846 ft 449 kts 116°
2026-04-25 09:35 9.94317 84.37229 36849 ft 449 kts 116°
2026-04-25 09:35 9.92127 84.42005 36853 ft 449 kts 116°
2026-04-25 09:36 9.89067 84.48679 36853 ft 449 kts 116°
2026-04-25 09:36 9.86434 84.54420 36850 ft 449 kts 116°
2026-04-25 09:37 9.83808 84.60142 36843 ft 446 kts 116°
2026-04-25 09:37 9.81630 84.64885 36843 ft 447 kts 116°
2026-04-25 09:38 9.78584 84.71517 36842 ft 446 kts 116°
2026-04-25 09:38 9.75964 84.77215 36841 ft 446 kts 116°
2026-04-25 09:39 9.73788 84.81946 36843 ft 445 kts 116°
2026-04-25 09:39 9.70728 84.88596 36836 ft 445 kts 116°
2026-04-25 09:40 9.66821 84.97083 36842 ft 445 kts 116°
2026-04-25 09:40 9.64205 85.02761 36842 ft 444 kts 116°
2026-04-25 09:41 9.62031 85.07477 36838 ft 444 kts 116°
2026-04-25 09:41 9.59421 85.13138 36837 ft 443 kts 116°
2026-04-25 09:42 9.56808 85.18799 36837 ft 443 kts 116°
2026-04-25 09:42 9.54197 85.24455 36837 ft 443 kts 116°
2026-04-25 09:43 9.51587 85.30105 36839 ft 443 kts 116°
2026-04-25 09:43 9.48995 85.35716 36838 ft 443 kts 116°
2026-04-25 09:44 9.46385 85.41364 36838 ft 443 kts 116°
2026-04-25 09:44 9.43773 85.47010 36838 ft 443 kts 116°
2026-04-25 09:45 9.41160 85.52656 36839 ft 443 kts 116°
2026-04-25 09:45 9.38564 85.58263 36843 ft 443 kts 116°
2026-04-25 09:46 9.35949 85.63909 36844 ft 443 kts 116°
2026-04-25 09:46 9.33333 85.69554 36848 ft 443 kts 116°
2026-04-25 09:47 9.30716 85.75196 36844 ft 443 kts 116°
2026-04-25 09:47 9.28120 85.80797 36840 ft 443 kts 116°